This is the latest recevied weather packets stored in our database for station/object K7MT-WX. If no packets are shown the sender has not sent any weather packets the latest 10 day(s).
| Time | Temp. | Humidity | Pressure | Rain* | Wind** | Luminosity | Snow |
|---|---|---|---|---|---|---|---|
| 1788144499 | 14.44° C | 48% | 1014.6 hPa | 0 mm | - | - | - |
| 1788143584 | 15.56° C | 43% | 1014.3 hPa | 0 mm | - | - | - |
| 1788142684 | 16.67° C | 40% | 1014.1 hPa | 0 mm | - | - | - |
| 1788141784 | 17.22° C | 38% | 1014 hPa | 0 mm | - | - | - |
| 1788140884 | 18.33° C | 37% | 1013.9 hPa | 0 mm | - | - | - |
| 1788139984 | 18.33° C | 36% | 1013.9 hPa | 0 mm | - | - | - |
| 1788139084 | 18.33° C | 39% | 1013.9 hPa | 0 mm | - | - | - |
| 1788138184 | 18.89° C | 37% | 1014 hPa | 0 mm | - | - | - |
| 1788137284 | 19.44° C | 35% | 1014 hPa | 0 mm | - | - | - |
| 1788136384 | 19.44° C | 34% | 1014 hPa | 0 mm | - | - | - |
| 1788135480 | 19.44° C | 36% | 1014 hPa | 0 mm | - | - | - |
| 1788134584 | 20° C | 33% | 1013.9 hPa | 0 mm | - | - | - |
| 1788133680 | 20° C | 35% | 1013.9 hPa | 0 mm | - | - | - |
| 1788132780 | 20.56° C | 30% | 1013.9 hPa | 0 mm | - | - | - |
| 1788131880 | 20.56° C | 30% | 1013.9 hPa | 0 mm | - | - | - |
| 1788130980 | 20° C | 33% | 1014 hPa | 0 mm | - | - | - |
| 1788130080 | 20° C | 34% | 1014.1 hPa | 0 mm | - | - | - |
| 1788129179 | 20° C | 32% | 1014.1 hPa | 0 mm | - | - | - |
| 1788128279 | 20.56° C | 31% | 1014.1 hPa | 0 mm | - | - | - |
| 1788127379 | 20.56° C | 35% | 1014.2 hPa | 0 mm | - | - | - |
| 1788126479 | 20.56° C | 29% | 1014.3 hPa | 0 mm | - | - | - |
| 1788125579 | 20.56° C | 32% | 1014.3 hPa | 0 mm | - | - | - |
| 1788124679 | 18.89° C | 39% | 1014.5 hPa | 0 mm | - | - | - |
| 1788123779 | 20° C | 37% | 1014.5 hPa | 0 mm | - | - | - |
| 1788122879 | 18.89° C | 37% | 1014.5 hPa | 0 mm | - | - | - |
* Rain latest hour (hover to see other rain measurements)
** Current wind speed in m/s (hover to see current wind gust speed)